Location: Unspecified
(33.6682°S, 0.0000°E)
Time: 20:59:40
(UTC+00:00)

S-56A Canister/Altair - Pass Details

Date: 03 July 2019
Orbit: 632 x 2500 km, 38.9° (Epoch: 21 July)

Event Time Altitude Azimuth Distance (km) Brightness Sun altitude
Exits shadow 05:04:06 40° 247° (WSW) 2,057 9.1 -24.5°
Maximum altitude 05:08:09 87° 160° (SSE) 1,691 9.1 -23.7°
Drops below altitude 10° 05:21:03 10° 68° (ENE) 4,768 12.7 -21.1°
Sets 05:25:16 0° 67° (ENE) 5,951 13.6 -20.2°
